Location: Colle San Luigi
(43.5500°N, 13.4167°E)
Time: 08:53:29
(UTC+00:00)

ERBS - Pass Details

Date: 09 April 2020
Orbit: 409 x 427 km, 57.0° (Epoch: 04 June)

Event Time Altitude Azimuth Distance (km) Brightness Sun altitude
Rises 20:09:40 0° 312° (NW) 2,398 7.5 -24.6°
Reaches altitude 10° 20:11:47 10° 313° (NW) 1,528 6.1 -24.9°
Enters shadow 20:13:52 35° 314° (NW) 718 3.9 -25.2°
